Location: Leipzig
(51.3203°N, 12.3761°E)
Time: 22:32:40
(UTC+01:00)

ISS - Pass Details

Date: 30 November 2021
Orbit: 413 x 422 km, 51.6° (Epoch: 27 January)

Event Time Altitude Azimuth Distance (km) Brightness Sun altitude
Rises 17:41:47 0° 274° (W) 2,388 1.5 -14.2°
Reaches altitude 10° 17:43:53 10° 275° (W) 1,520 0.2 -14.5°
Maximum altitude 17:47:18 84° 2° (N) 433 -3.8 -15.0°
Enters shadow 17:48:42 33° 90° (E) 736 -3.1 -15.2°
